TimeCDT,TemperatureF,Dew PointF,Humidity,Sea Level PressureIn,VisibilityMPH,Wind Direction,Wind SpeedMPH,Gust SpeedMPH,PrecipitationIn,Events,Conditions,WindDirDegrees,DateUTC
12:52 AM,59.0,54.0,83,29.88,10.0,SE,6.9,-,N/A,,Partly Cloudy,140,2012-10-22 05:52:00
1:52 AM,59.0,55.0,87,29.86,10.0,SE,6.9,-,N/A,,Mostly Cloudy,130,2012-10-22 06:52:00
2:52 AM,57.9,55.0,90,29.85,10.0,SSE,9.2,-,N/A,,Scattered Clouds,150,2012-10-22 07:52:00
3:52 AM,57.0,55.0,93,29.83,10.0,East,5.8,-,N/A,,Mostly Cloudy,100,2012-10-22 08:52:00
4:52 AM,55.4,55.4,100,29.84,8.0,ESE,5.8,-,N/A,,Mostly Cloudy,110,2012-10-22 09:52:00
5:52 AM,55.9,55.0,97,29.83,8.0,East,6.9,-,N/A,,Mostly Cloudy,100,2012-10-22 10:52:00
6:52 AM,57.2,55.4,94,29.83,8.0,East,5.8,-,N/A,,Mostly Cloudy,90,2012-10-22 11:52:00
7:03 AM,55.4,55.4,100,29.85,8.0,ESE,5.8,-,N/A,Thunderstorm,Mostly Cloudy,120,2012-10-22 12:03:00
7:24 AM,57.2,57.2,100,29.87,8.0,Variable,5.8,-,N/A,Thunderstorm,Overcast,0,2012-10-22 12:24:00
7:48 AM,60.8,60.8,100,29.88,1.8,South,12.7,25.3,N/A,Rain-Thunderstorm,Heavy Thunderstorms and Rain,170,2012-10-22 12:48:00
7:49 AM,60.8,60.8,100,29.88,1.8,South,12.7,-,N/A,Rain-Thunderstorm,Heavy Thunderstorms and Rain,170,2012-10-22 12:49:00
7:52 AM,60.8,60.8,100,29.89,2.0,SSE,12.7,-,N/A,Rain-Thunderstorm,Heavy Thunderstorms and Rain,160,2012-10-22 12:52:00
8:05 AM,60.8,60.8,100,29.88,2.0,SSE,9.2,-,0.04,Rain-Thunderstorm,Rain,160,2012-10-22 13:05:00
8:29 AM,59.0,59.0,100,29.86,3.0,SE,4.6,-,N/A,Rain,Rain,130,2012-10-22 13:29:00
8:39 AM,59.0,59.0,100,29.86,3.0,SE,4.6,-,0.13,Rain-Thunderstorm,Rain,140,2012-10-22 13:39:00
8:52 AM,59.0,59.0,100,29.85,3.0,ESE,3.5,-,0.17,Rain-Thunderstorm,Rain,120,2012-10-22 13:52:00
8:54 AM,59.0,59.0,100,29.85,3.0,ESE,3.5,-,0.01,Rain-Thunderstorm,Heavy Rain,110,2012-10-22 13:54:00
9:52 AM,59.0,59.0,100,29.84,3.0,NE,8.1,-,0.11,Rain-Thunderstorm,Rain,40,2012-10-22 14:52:00
9:54 AM,59.0,59.0,100,29.84,3.0,NE,8.1,-,0.00,Rain,Light Rain,40,2012-10-22 14:54:00
10:52 AM,64.4,64.4,100,29.85,8.0,ESE,8.1,-,N/A,,Scattered Clouds,120,2012-10-22 15:52:00
11:52 AM,68.0,62.6,83,29.85,10.0,SSE,8.1,-,N/A,,Scattered Clouds,150,2012-10-22 16:52:00
12:52 PM,69.1,62.1,78,29.84,10.0,South,6.9,-,N/A,,Scattered Clouds,170,2012-10-22 17:52:00
1:52 PM,69.1,64.0,84,29.82,10.0,ESE,10.4,-,N/A,,Scattered Clouds,110,2012-10-22 18:52:00
2:27 PM,69.8,62.6,78,29.83,10.0,SE,8.1,-,N/A,,Mostly Cloudy,130,2012-10-22 19:27:00
2:52 PM,69.8,62.6,78,29.82,10.0,ESE,8.1,-,N/A,,Mostly Cloudy,120,2012-10-22 19:52:00
3:52 PM,68.0,63.0,84,29.81,10.0,SE,9.2,-,N/A,,Mostly Cloudy,140,2012-10-22 20:52:00
4:17 PM,68.0,62.6,83,29.81,10.0,SSE,11.5,-,N/A,,Mostly Cloudy,150,2012-10-22 21:17:00
4:40 PM,66.2,64.4,94,29.83,7.0,SSE,9.2,-,N/A,,Overcast,160,2012-10-22 21:40:00
4:52 PM,64.9,64.0,97,29.83,5.0,SSE,9.2,-,N/A,,Overcast,150,2012-10-22 21:52:00
5:52 PM,64.4,64.4,100,29.83,4.0,SE,4.6,-,N/A,,Overcast,140,2012-10-22 22:52:00
6:52 PM,63.0,63.0,100,29.84,5.0,East,8.1,-,N/A,,Overcast,80,2012-10-22 23:52:00
7:12 PM,62.6,62.6,100,29.85,4.0,East,6.9,-,N/A,,Overcast,100,2012-10-23 00:12:00
8:04 PM,62.6,62.6,100,29.84,1.0,East,10.4,-,N/A,,Overcast,100,2012-10-23 01:04:00
8:40 PM,62.6,62.6,100,29.84,0.5,East,6.9,-,N/A,Fog,Fog,90,2012-10-23 01:40:00
8:52 PM,63.0,63.0,100,29.84,0.5,ENE,6.9,-,N/A,Fog,Fog,70,2012-10-23 01:52:00
8:57 PM,62.6,62.6,100,29.84,0.2,East,10.4,-,N/A,Fog,Fog,90,2012-10-23 01:57:00
9:32 PM,62.6,62.6,100,29.84,0.5,East,8.1,-,N/A,Fog,Fog,100,2012-10-23 02:32:00
9:52 PM,62.1,62.1,100,29.84,0.5,East,8.1,-,N/A,Fog,Fog,100,2012-10-23 02:52:00
10:13 PM,62.6,62.6,100,29.84,1.2,East,9.2,-,N/A,,Mist,80,2012-10-23 03:13:00
10:34 PM,62.6,62.6,100,29.84,2.5,East,10.4,-,N/A,,Mist,80,2012-10-23 03:34:00
10:48 PM,62.6,62.6,100,29.84,3.0,East,9.2,-,N/A,,Mostly Cloudy,90,2012-10-23 03:48:00
11:04 PM,62.6,62.6,100,29.84,2.5,ESE,8.1,-,N/A,,Mostly Cloudy,110,2012-10-23 04:04:00
11:52 PM,61.0,61.0,100,29.82,1.8,East,11.5,-,N/A,,Overcast,100,2012-10-23 04:52:00